557  
SXUS52 KCHS 240512  
OSOCHS  
 
MARINE OBSERVATIONS  
NATIONAL WEATHER SERVICE CHARLESTON SC  
100 AM EDT SUN JUN 24 2018  
   
..DOWNTOWN CHARLESTON AND HARBOR
 
 
 
CITY SKY/WX TMP DP RH WIND PRES REMARKS  
WATERFRONT PRK N/A 82 77 84 VRB2 29.79S HX 90  
   
..LAKE MOULTRIE
 
 
 
CITY SKY/WX TMP DP RH WIND PRES REMARKS  
PINOPOLIS N/A 79 73 83 S5 29.88R  
   
..LAKE AND SUPPLEMENTAL COASTAL OBSERVATIONS
 
 
 
STATION/POSITION TIME TEMP WIND PRES WAVE SWELL  
AIR SEA DIR/SP/G HT/PER HT/PER/DIR  
(UTC) (F) (DEG/KT/KT) (MB) (FT/S) (FT/S/D)  
FORT PULASKI 0442 82 82 220/ 6/ 10 1015.4S  
SAPELO ISLAND 0400 81 170/ 12 1015.0  
WINYAH BAY NOT AVBL  
LAKE MURRAY 0420 81 240/ 9/ 11 1013.2R  
ACE BASIN NERRS 0345 78 CALM 1015.0  
 
   
..C-MAN AND BUOY OBSERVATIONS
 
 
 
STATION/POSITION TIME TEMP WIND PRES WAVE SWELL  
AIR SEA DIR/SP/G HT/PER HT/PER/DIR  
(UTC) (F) (DEG/KT/KT) (MB) (FT/S) (FT/S/D)  
BUOY 41004 0450 210/ 17/ 19 1014.2F 3/ 5  
BUOY 41008 0450 82 83 170/ 16/ 19 1014.8F 2/ 4  
FOLLY BEACH CMAN 0500 82 220/ 11/ 13 1015.0R  
PRITCHARDS ISLAN NOT AVBL  
CAPERS NS BUOY 0408 82 80 240/ 10/ 14 1013.4R  
FRIPP NS BUOY 0408 82 82 220/ 12/ 17 1014.2S  
5E ST. MARYS GA 0500 83 N/A 3/ 4  
 
 
STATION/POSITION TIME TEMP WIND PRES WAVE SWELL  
AIR SEA DIR/SP/G HT/PER HT/PER/DIR  
(UTC) (F) (DEG/KT/KT) (MB) (FT/S) (FT/S/D)  
FRYING PAN BUOY 0450 83 82 210/ 16/ 19 1013.6F 5/ 5  
BUOY 41025 0450 82 82 210/ 17/ 23 1013.4S 7/ 7  
CAPE LOOKOUT NC 0500 210/ 11/ 14 1013.4R  
BUOY 41002 0450 81 200/ 12/ 14 1016.7F 3/ 6 2/250/ 6  
BUOY 41010 0450 83 83 180/ 12/ 14 1017.3F 2/ 7 2/130/ 7  
ST AUGUSTINE FL 0500 78 79 210/ 9/ 11 1016.8F  
 

 
 
 
CLICK HERE TO GO TO PREVIOUS BULLETINS.

The Nexlab SC Page
The Nexlab GA Page Main Text Page